Weather History for Adana Incirlik AFB, Turkey

Change the Weather History Date:

Monday, November 26, 2012

  Actual Average Record
Temperature  
Mean Temperature 55 °F -  
Max Temperature 68 °F 63 °F 73 °F (2010)
Min Temperature 42 °F 46 °F 30 °F (2011)
Degree Days  
Heating Degree Days 10    
Growing Degree Days 5 (Base 50)    
Moisture  
Dew Point 38 °F    
Average Humidity 57    
Maximum Humidity 81    
Minimum Humidity 16    
Precipitation  
Precipitation 0.00 in - - ()
Sea Level Pressure  
Sea Level Pressure 30.02 in    
Wind  
Wind Speed 6 mph ()    
Max Wind Speed 10 mph    
Max Gust Speed -    
Visibility 6.2 miles    
Events      
Averages and records for this station are not official NWS values.
T = Trace of Precipitation, MM = Missing Value Source: Averaged Metar Reports

Daily Weather History Graph

Daily Weather History Graph

Search for Another Location

Airport:

Trip Planner

Search our weather history database for the weather conditions in past years. The results will help you decide how hot, cold, wet, or windy it might be!

Date:

Astronomy

Nov. 26, 2012 Rise Set
Actual Time 6:28 AM EET 4:22 PM EET
Civil Twilight 5:59 AM EET 4:51 PM EET
Nautical Twilight 5:27 AM EET 5:23 PM EET
Astronomical Twilight 4:56 AM EET 5:54 PM EET
Moon 3:00 PM EET 4:20 AM EET
Length of Visible Light 10h 51m
Length of Day
9h 54m
Waxing Gibbous, 96% of the Moon is Illuminated
Nov 26
Waxing Gibbous
Nov 28
Full
Dec 6
Last Quarter
Dec 13
New
Dec 20
First Quarter

Hourly Weather History & Observations

Time (EET) Temp. Windchill Dew Point Humidity Pressure Visibility Wind Dir Wind Speed Gust Speed Precip Events Conditions
12:20 AM 46.4 °F 41.9 °F 39.2 °F 76% 30.01 in 6.2 mi North 9.2 mph - N/A   Scattered Clouds
12:50 AM 46.4 °F 41.5 °F 39.2 °F 76% 30.01 in 6.2 mi North 10.4 mph - N/A   Scattered Clouds
1:20 AM 44.6 °F 39.7 °F 39.2 °F 81% 30.01 in 6.2 mi North 9.2 mph - N/A   Scattered Clouds
1:50 AM 46.4 °F 42.4 °F 37.4 °F 71% 30.01 in 6.2 mi North 8.1 mph - N/A   Scattered Clouds
2:00 AM 47 °F - 37 °F 58% 30.00 in 6 mi North 8.1 mph - -   Partly Cloudy
2:20 AM 44.6 °F 41.4 °F 37.4 °F 76% 30.01 in 6.2 mi North 5.8 mph - N/A   Scattered Clouds
2:50 AM 44.6 °F 40.2 °F 37.4 °F 76% 30.01 in 6.2 mi North 8.1 mph - N/A   Scattered Clouds
3:20 AM 44.6 °F 39.7 °F 37.4 °F 76% 30.01 in 6.2 mi North 9.2 mph - N/A   Scattered Clouds
3:50 AM 44.6 °F 41.4 °F 37.4 °F 76% 30.01 in 6.2 mi North 5.8 mph - N/A   Scattered Clouds
4:20 AM 44.6 °F - 37.4 °F 76% 30.01 in 6.2 mi NE 2.3 mph - N/A   Scattered Clouds
4:50 AM 42.8 °F 40.1 °F 37.4 °F 81% 30.01 in 6.2 mi North 4.6 mph - N/A   Scattered Clouds
5:20 AM 46.4 °F - 37.4 °F 71% 30.01 in 6.2 mi WNW 1.2 mph - N/A   Scattered Clouds
5:50 AM 46.4 °F 45.2 °F 35.6 °F 66% 30.01 in 6.2 mi North 3.5 mph - N/A   Scattered Clouds
6:20 AM 44.6 °F 41.4 °F 35.6 °F 71% 30.01 in 6.2 mi NW 5.8 mph - N/A   Scattered Clouds
6:50 AM 46.4 °F 45.2 °F 35.6 °F 66% 30.01 in - NNW 3.5 mph - N/A   Clear
7:20 AM 50.0 °F - 35.6 °F 58% 30.04 in - NW 4.6 mph - N/A   Clear
7:50 AM 51.8 °F - 39.2 °F 62% 30.04 in - NNW 5.8 mph - N/A   Clear
8:00 AM 52 °F - 40 °F 52% 30.04 in 6 mi NNW 5.8 mph - -   Clear
8:20 AM 57.2 °F - 39.2 °F 51% 30.04 in - NNW 6.9 mph - N/A   Clear
8:50 AM 59.0 °F - 37.4 °F 45% 30.04 in - North 5.8 mph - N/A   Clear
9:20 AM 62.6 °F - 37.4 °F 39% 30.04 in - North 4.6 mph - N/A   Clear
9:50 AM 64.4 °F - 37.4 °F 37% 30.04 in - North 9.2 mph - N/A   Clear
10:20 AM 66.2 °F - 35.6 °F 32% 30.04 in - NNW 5.8 mph - N/A   Clear
10:50 AM 66.2 °F - 35.6 °F 32% 30.04 in - North 5.8 mph - N/A   Clear
11:20 AM 68.0 °F - 32.0 °F 26% 30.04 in - North 5.8 mph - N/A   Clear
11:50 AM 68.0 °F - 33.8 °F 28% 30.01 in - SSW 2.3 mph - N/A   Clear
12:20 PM 68.0 °F - 33.8 °F 28% 30.01 in - SW 2.3 mph - N/A   Clear
12:50 PM 68.0 °F - 35.6 °F 30% 30.01 in - SSW 3.5 mph - N/A   Clear
1:20 PM 68.0 °F - 32.0 °F 26% 30.01 in - West 5.8 mph - N/A   Clear
1:50 PM 68.0 °F - 32.0 °F 26% 30.01 in - WSW 6.9 mph - N/A   Clear
2:00 PM 68 °F - 33 °F 16% 30.00 in 6 mi WSW 6.9 mph - -   Clear
2:20 PM 68.0 °F - 32.0 °F 26% 30.01 in - SW 5.8 mph - N/A   Clear
2:50 PM 68.0 °F - 35.6 °F 30% 30.01 in - WSW 8.1 mph - N/A   Clear
3:20 PM 64.4 °F - 35.6 °F 34% 30.01 in - SW 9.2 mph - N/A   Clear
3:50 PM 64.4 °F - 37.4 °F 37% 30.01 in - SW 8.1 mph - N/A   Clear
4:20 PM 60.8 °F - 37.4 °F 42% 30.01 in - SW 6.9 mph - N/A   Clear
4:50 PM 59.0 °F - 39.2 °F 48% 30.01 in - WSW 6.9 mph - N/A   Clear
5:20 PM 59.0 °F - 39.2 °F 48% 30.01 in - SW 6.9 mph - N/A   Clear
5:50 PM 59.0 °F - 41.0 °F 51% 30.01 in - West 4.6 mph - N/A   Clear
6:20 PM 57.2 °F - 41.0 °F 55% 30.04 in - North 5.8 mph - N/A   Clear
6:50 PM 48.2 °F - 41.0 °F 76% 30.04 in - NE 6.9 mph - N/A   Clear
7:20 PM 50.0 °F - 41.0 °F 71% 30.04 in - NE 6.9 mph - N/A   Clear
7:50 PM 50.0 °F - 41.0 °F 71% 30.04 in - NE 5.8 mph - N/A   Clear
8:00 PM 49 °F - 42 °F 67% 30.05 in 6 mi NE 5.8 mph - -  
8:20 PM 48.2 °F - 41.0 °F 76% 30.04 in - ENE 5.8 mph - N/A   Clear
8:50 PM 46.4 °F 42.9 °F 41.0 °F 81% 30.04 in - NE 6.9 mph - N/A   Clear
9:20 PM 48.2 °F - 41.0 °F 76% 30.04 in - NE 9.2 mph - N/A   Clear
9:50 PM 48.2 °F - 41.0 °F 76% 30.04 in - NE 9.2 mph - N/A   Clear
10:20 PM 48.2 °F - 41.0 °F 76% 30.04 in - NE 9.2 mph - N/A   Clear
10:50 PM 48.2 °F - 41.0 °F 76% 30.04 in - North 10.4 mph - N/A   Clear
11:20 PM 48.2 °F - 41.0 °F 76% 30.04 in - North 10.4 mph - N/A   Clear
11:50 PM 48.2 °F - 41.0 °F 76% 30.04 in - NE 9.2 mph - N/A   Clear